EW0158 Weather Reports


Display with metric or nautical units.
time (UTC)temp
F
wind
direction
speed
MPH
gust
MPH
rain 1hr
in
rain 24hr
in
rain mn
in
humidity
%
barometer
mb
20260903005015 90 157 2.0 4.0 0.00 0.00 0.00 40 1013.3
20260903003015 92 180 3.0 5.0 0.00 0.00 0.00 37 1013.4
20260903001016 93 180 5.0 9.0 0.00 0.00 0.00 36 1013.7
20260903000015 94 180 5.0 9.0 0.00 0.00 0.00 35 1013.9
20260902235016 95 202 6.0 10.0 0.00 0.00 0.00 34 1013.7
20260902234015 95 202 8.0 17.0 0.00 0.00 0.00 35 1013.8
20260902233015 96 202 5.0 7.0 0.00 0.00 0.00 32 1014.0
20260902232015 96 202 5.0 9.0 0.00 0.00 0.00 32 1013.9
20260902231017 96 202 6.0 10.0 0.00 0.00 0.00 32 1013.9
20260902230015 97 202 8.0 11.0 0.00 0.00 0.00 32 1014.0
20260902225015 97 135 3.0 4.0 0.00 0.00 0.00 31 1014.0
20260902223017 97 202 6.0 10.0 0.00 0.00 0.00 32 1014.1
20260902222015 97 202 5.0 11.0 0.00 0.00 0.00 31 1014.3
20260902221017 97 202 5.0 10.0 0.00 0.00 0.00 30 1014.2
20260902220015 97 180 5.0 13.0 0.00 0.00 0.00 30 1014.4
20260902215015 98 180 6.0 11.0 0.00 0.00 0.00 30 1014.5
20260902214015 98 202 7.0 15.0 0.00 0.00 0.00 32 1014.6
20260902213015 97 247 6.0 12.0 0.00 0.00 0.00 32 1014.8
20260902212015 96 270 3.0 6.0 0.00 0.00 0.00 32 1014.8
20260902211118 96 202 5.0 7.0 0.00 0.00 0.00 32 1014.9
20260902210015 95 270 1.0 3.0 0.00 0.00 0.00 32 1014.9
20260902205015 95 202 3.0 6.0 0.00 0.00 0.00 32 1015.2
20260902204015 95 202 3.0 6.0 0.00 0.00 0.00 33 1015.3
20260902203016 94 180 3.0 5.0 0.00 0.00 0.00 33 1015.4
20260902202015 97 90 7.0 11.0 0.00 0.00 0.00 31 1015.6
20260902201015 98 135 3.0 7.0 0.00 0.00 0.00 32 1016.0
20260902200015 98 67 10.0 15.0 0.00 0.00 0.00 31 1016.3
20260902194015 95 270 2.0 3.0 0.00 0.00 0.00 32 1016.5
20260902193015 96 247 5.0 9.0 0.00 0.00 0.00 32 1016.6
20260902192015 96 202 3.0 7.0 0.00 0.00 0.00 34 1016.6
20260902191015 96 202 6.0 11.0 0.00 0.00 0.00 34 1017.0
20260902190016 96 292 3.0 7.0 0.00 0.00 0.00 35 1017.3
20260902185015 92 225 4.0 6.0 0.00 0.00 0.00 37 1017.0
20260902183015 94 112 4.0 10.0 0.00 0.00 0.00 36 1017.4
20260902182017 95 202 6.0 11.0 0.00 0.00 0.00 35 1017.8
20260902181015 94 225 4.0 10.0 0.00 0.00 0.00 35 1017.8
20260902180015 95 315 4.0 7.0 0.00 0.00 0.00 35 1017.8
20260902175015 92 315 4.0 7.0 0.00 0.00 0.00 37 1018.1
20260902174116 94 202 6.0 10.0 0.00 0.00 0.00 36 1018.2
20260902173115 93 202 2.0 5.0 0.00 0.00 0.00 38 1018.5
20260902172116 92 180 3.0 6.0 0.00 0.00 0.00 38 1018.6
20260902171016 91 180 4.0 6.0 0.00 0.00 0.00 39 1018.4
20260902170016 93 202 6.0 12.0 0.00 0.00 0.00 38 1018.7
20260902165116 92 180 4.0 9.0 0.00 0.00 0.00 40 1018.9
20260902164016 92 202 6.0 11.0 0.00 0.00 0.00 41 1018.8
20260902163015 90 202 3.0 6.0 0.00 0.00 0.00 43 1018.7
20260902162015 90 202 5.0 13.0 0.00 0.00 0.00 44 1018.8
20260902161016 90 202 5.0 10.0 0.00 0.00 0.00 45 1018.9
20260902160015 89 202 7.0 13.0 0.00 0.00 0.00 46 1018.7
20260902155016 88 202 7.0 12.0 0.00 0.00 0.00 46 1018.8
20260902154015 87 225 7.0 11.0 0.00 0.00 0.00 47 1018.7
20260902153116 87 202 5.0 9.0 0.00 0.00 0.00 49 1018.7
20260902152015 85 202 8.0 13.0 0.00 0.00 0.00 50 1018.7
20260902151016 84 202 8.0 12.0 0.00 0.00 0.00 50 1018.6
20260902150020 83 202 9.0 14.0 0.00 0.00 0.00 53 1018.6
20260902145016 83 202 8.0 12.0 0.00 0.00 0.00 54 1018.6
20260902144016 82 202 6.0 13.0 0.00 0.00 0.00 57 1018.5
20260902143016 81 202 7.0 12.0 0.00 0.00 0.00 60 1018.5
20260902142016 80 202 6.0 10.0 0.00 0.00 0.00 64 1018.6
20260902141016 78 202 6.0 10.0 0.00 0.00 0.00 68 1018.5
20260902140016 77 202 7.0 11.0 0.00 0.00 0.00 70 1018.4
20260902135016 76 202 6.0 11.0 0.00 0.00 0.00 73 1018.4
20260902134016 76 202 6.0 11.0 0.00 0.00 0.00 76 1018.3
20260902133016 75 202 4.0 7.0 0.00 0.00 0.00 76 1018.1
20260902132016 74 202 5.0 7.0 0.00 0.00 0.00 76 1018.0
20260902130016 72 202 4.0 6.0 0.00 0.00 0.00 79 1017.7
20260902125016 71 202 4.0 7.0 0.00 0.00 0.00 80 1017.7
20260902124016 71 202 4.0 6.0 0.00 0.00 0.00 80 1017.6
20260902123016 71 202 4.0 6.0 0.00 0.00 0.00 80 1017.6
20260902122016 71 202 4.0 6.0 0.00 0.00 0.00 79 1017.6
20260902121016 71 202 5.0 7.0 0.00 0.00 0.00 79 1017.5
20260902120016 71 202 4.0 6.0 0.00 0.00 0.00 78 1017.7
20260902115016 71 202 5.0 6.0 0.00 0.00 0.00 78 1017.8
20260902114016 71 202 5.0 7.0 0.00 0.00 0.00 78 1017.9
20260902113016 72 180 4.0 6.0 0.00 0.00 0.00 77 1017.9
20260902112016 72 180 5.0 7.0 0.00 0.00 0.00 77 1017.9
20260902111016 72 180 4.0 9.0 0.00 0.00 0.00 77 1017.9
20260902110016 72 180 4.0 7.0 0.00 0.00 0.00 76 1017.9
20260902105016 72 180 5.0 7.0 0.00 0.00 0.00 76 1017.9
20260902104016 72 180 3.0 5.0 0.00 0.00 0.00 76 1017.9
20260902103116 72 157 2.0 4.0 0.00 0.00 0.00 76 1018.0
20260902102016 72 157 2.0 4.0 0.00 0.00 0.00 76 1017.9
20260902101016 72 157 2.0 4.0 0.00 0.00 0.00 76 1017.9
20260902100016 72 157 2.0 4.0 0.00 0.00 0.00 76 1018.1
20260902095016 72 157 2.0 4.0 0.00 0.00 0.00 75 1018.0
20260902094016 72 157 2.0 3.0 0.00 0.00 0.00 74 1018.2
20260902093016 73 180 3.0 4.0 0.00 0.00 0.00 74 1018.2
20260902092016 73 180 2.0 4.0 0.00 0.00 0.00 73 1017.9
20260902091016 73 180 2.0 5.0 0.00 0.00 0.00 73 1018.0
20260902090016 74 180 3.0 6.0 0.00 0.00 0.00 73 1018.1
20260902085016 74 180 3.0 6.0 0.00 0.00 0.00 72 1018.1
20260902084016 74 180 5.0 9.0 0.00 0.00 0.00 72 1018.2
20260902083016 74 180 4.0 7.0 0.00 0.00 0.00 72 1018.3
20260902082016 74 180 3.0 5.0 0.00 0.00 0.00 71 1018.3
20260902081016 75 180 3.0 5.0 0.00 0.00 0.00 71 1018.2
20260902080016 75 180 3.0 6.0 0.00 0.00 0.00 70 1018.2
20260902075016 76 180 4.0 6.0 0.00 0.00 0.00 69 1018.3
20260902074016 76 180 4.0 6.0 0.00 0.00 0.00 68 1018.3
20260902073016 76 157 5.0 9.0 0.00 0.00 0.00 68 1018.3
20260902072016 76 157 4.0 9.0 0.00 0.00 0.00 68 1018.5
20260902071016 77 157 5.0 9.0 0.00 0.00 0.00 67 1018.2
20260902070117 77 157 3.0 7.0 0.00 0.00 0.00 67 1018.2
20260902065021 76 180 3.0 7.0 0.00 0.00 0.00 66 1018.3
20260902064116 77 157 3.0 5.0 0.00 0.00 0.00 64 1018.2
20260902063016 77 180 3.0 7.0 0.00 0.00 0.00 64 1018.1
20260902062016 77 157 3.0 5.0 0.00 0.00 0.00 64 1018.0
20260902061016 77 157 3.0 5.0 0.00 0.00 0.00 64 1018.0
20260902060016 77 135 3.0 6.0 0.00 0.00 0.00 63 1018.0
20260902055016 77 157 2.0 4.0 0.00 0.00 0.00 63 1018.0
20260902054016 78 135 3.0 5.0 0.00 0.00 0.00 62 1017.9
20260902053016 78 135 2.0 5.0 0.00 0.00 0.00 61 1017.9
20260902052016 78 157 3.0 5.0 0.00 0.00 0.00 60 1017.9
20260902051016 78 135 3.0 7.0 0.00 0.00 0.00 59 1018.0
20260902050016 79 157 3.0 5.0 0.00 0.00 0.00 58 1018.1
20260902045015 78 135 2.0 3.0 0.00 0.00 0.00 57 1017.9
20260902043016 78 135 2.0 3.0 0.00 0.00 0.00 56 1017.8
20260902042016 78 157 2.0 3.0 0.00 0.00 0.00 56 1017.7
20260902041016 78 157 1.0 3.0 0.00 0.00 0.00 56 1017.6
20260902040016 79 157 1.0 2.0 0.00 0.00 0.00 56 1017.5
20260902035016 79 157 1.0 2.0 0.00 0.00 0.00 56 1017.4
20260902034016 79 135 1.0 2.0 0.00 0.00 0.00 55 1017.4
20260902033016 79 157 1.0 3.0 0.00 0.00 0.00 55 1017.3
20260902032016 80 157 1.0 2.0 0.00 0.00 0.00 54 1017.1
20260902031016 80 157 1.0 2.0 0.00 0.00 0.00 54 1017.1
20260902030016 80 135 1.0 3.0 0.00 0.00 0.00 54 1016.9
20260902025016 81 135 1.0 2.0 0.00 0.00 0.00 53 1016.7
20260902024016 81 157 2.0 4.0 0.00 0.00 0.00 52 1016.6
20260902023016 81 157 1.0 3.0 0.00 0.00 0.00 51 1016.4
20260902022016 82 135 2.0 2.0 0.00 0.00 0.00 50 1016.1
20260902021016 82 135 1.0 3.0 0.00 0.00 0.00 50 1015.8
20260902020016 83 157 2.0 4.0 0.00 0.00 0.00 48 1015.8
20260902015118 83 157 2.0 4.0 0.00 0.00 0.00 48 1015.7
20260902014016 84 135 2.0 4.0 0.00 0.00 0.00 47 1015.6
20260902013016 85 135 2.0 3.0 0.00 0.00 0.00 46 1015.3
20260902012016 85 157 2.0 4.0 0.00 0.00 0.00 45 1015.4
20260902011016 86 157 2.0 4.0 0.00 0.00 0.00 44 1015.3
20260902010016 87 157 2.0 4.0 0.00 0.00 0.00 43 1015.4